Time,TemperatureF,DewpointF,PressureIn,WindDirection,WindDirectionDegrees,WindSpeedMPH,WindSpeedGustMPH,Humidity,HourlyPrecipIn,Conditions,Clouds,dailyrainin,SolarRadiationWatts/m^2,SoftwareType,DateUTC
2013-01-12 00:00:00,37.0,28.0,-100.00,East,100,3.0,7.0,69,0.00,,,0.00,0.000000,,2013-01-12 08:00:00,
2013-01-12 00:32:00,37.0,28.0,-100.00,East,100,3.0,7.0,69,0.00,,,0.00,0.000000,,2013-01-12 08:32:00,
2013-01-12 00:42:00,37.0,28.0,-100.00,East,100,3.0,7.0,69,0.00,,,0.00,0.000000,,2013-01-12 08:42:00,
2013-01-12 00:52:00,37.0,28.0,-100.00,East,100,3.0,7.0,69,0.00,,,0.00,0.000000,,2013-01-12 08:52:00,
2013-01-12 01:00:00,36.0,29.0,-100.00,NE,54,4.0,7.0,74,0.00,,,0.00,0.000000,,2013-01-12 09:00:00,
2013-01-12 01:22:00,36.0,29.0,-100.00,NE,54,4.0,7.0,74,0.00,,,0.00,0.000000,,2013-01-12 09:22:00,
2013-01-12 01:32:00,36.0,29.0,-100.00,NE,54,4.0,7.0,74,0.00,,,0.00,0.000000,,2013-01-12 09:32:00,
2013-01-12 01:42:00,36.0,29.0,-100.00,NE,54,4.0,7.0,74,0.00,,,0.00,0.000000,,2013-01-12 09:42:00,
2013-01-12 01:53:00,36.0,29.0,-100.00,NE,54,4.0,7.0,74,0.00,,,0.00,0.000000,,2013-01-12 09:53:00,
2013-01-12 02:00:00,36.0,29.0,-100.00,ENE,68,4.0,9.0,75,0.00,,,0.00,0.000000,,2013-01-12 10:00:00,
2013-01-12 02:32:00,36.0,29.0,-100.00,ENE,68,4.0,9.0,75,0.00,,,0.00,0.000000,,2013-01-12 10:32:00,
2013-01-12 02:43:00,36.0,29.0,-100.00,ENE,68,4.0,9.0,75,0.00,,,0.00,0.000000,,2013-01-12 10:43:00,
2013-01-12 02:52:00,36.0,29.0,-100.00,ENE,68,4.0,9.0,75,0.00,,,0.00,0.000000,,2013-01-12 10:52:00,
2013-01-12 03:00:00,35.0,28.0,-100.00,NE,54,3.0,7.0,76,0.00,,,0.00,0.000000,,2013-01-12 11:00:00,
2013-01-12 03:22:00,35.0,28.0,-100.00,NE,54,3.0,7.0,76,0.00,,,0.00,0.000000,,2013-01-12 11:22:00,
2013-01-12 03:33:00,35.0,28.0,-100.00,NE,54,3.0,7.0,76,0.00,,,0.00,0.000000,,2013-01-12 11:33:00,
2013-01-12 03:42:00,35.0,28.0,-100.00,NE,54,3.0,7.0,76,0.00,,,0.00,0.000000,,2013-01-12 11:42:00,
2013-01-12 03:53:00,35.0,28.0,-100.00,NE,54,3.0,7.0,76,0.00,,,0.00,0.000000,,2013-01-12 11:53:00,
2013-01-12 04:00:00,36.0,30.0,-100.00,NE,55,6.0,9.0,78,0.00,,,0.00,0.000000,,2013-01-12 12:00:00,
2013-01-12 04:33:00,36.0,30.0,-100.00,NE,55,6.0,9.0,78,0.00,,,0.00,0.000000,,2013-01-12 12:33:00,
2013-01-12 04:43:00,36.0,30.0,-100.00,NE,55,6.0,9.0,78,0.00,,,0.00,0.000000,,2013-01-12 12:43:00,
2013-01-12 04:52:00,36.0,30.0,-100.00,NE,55,6.0,9.0,78,0.00,,,0.00,0.000000,,2013-01-12 12:52:00,
2013-01-12 05:33:00,36.0,27.0,-100.00,NE,56,7.0,10.0,70,0.00,,,-99.99,0.000000,,2013-01-12 13:33:00,
2013-01-12 05:43:00,36.0,27.0,-100.00,NE,56,7.0,10.0,70,0.00,,,-99.99,0.000000,,2013-01-12 13:43:00,
2013-01-12 05:53:00,36.0,27.0,-100.00,NE,56,7.0,10.0,70,0.00,,,-99.99,0.000000,,2013-01-12 13:53:00,
2013-01-12 06:00:00,35.0,25.0,-100.00,ENE,60,8.0,13.0,67,0.00,,,0.00,0.000000,,2013-01-12 14:00:00,
2013-01-12 06:33:00,35.0,25.0,-100.00,ENE,60,8.0,13.0,67,0.00,,,0.00,0.000000,,2013-01-12 14:33:00,
2013-01-12 06:43:00,35.0,25.0,-100.00,ENE,60,8.0,13.0,67,0.00,,,0.00,0.000000,,2013-01-12 14:43:00,
2013-01-12 06:53:00,35.0,25.0,-100.00,ENE,60,8.0,13.0,67,0.00,,,0.00,0.000000,,2013-01-12 14:53:00,
2013-01-12 07:00:00,35.0,23.0,-100.00,ENE,63,9.0,14.0,62,0.00,,,0.00,0.000000,,2013-01-12 15:00:00,
2013-01-12 07:23:00,35.0,23.0,-100.00,ENE,63,9.0,14.0,62,0.00,,,0.00,0.000000,,2013-01-12 15:23:00,
2013-01-12 07:33:00,35.0,23.0,-100.00,ENE,63,9.0,14.0,62,0.00,,,0.00,0.000000,,2013-01-12 15:33:00,
2013-01-12 07:43:00,35.0,23.0,-100.00,ENE,63,9.0,14.0,62,0.00,,,0.00,0.000000,,2013-01-12 15:43:00,
2013-01-12 07:53:00,35.0,23.0,-100.00,ENE,63,9.0,14.0,62,0.00,,,0.00,0.000000,,2013-01-12 15:53:00,
2013-01-12 08:33:00,37.0,22.0,-100.00,ENE,61,7.0,14.0,55,0.00,,,0.00,35.000000,,2013-01-12 16:33:00,
2013-01-12 09:00:00,41.0,22.0,-100.00,ESE,104,4.0,10.0,46,-99.99,,,0.00,188.000000,,2013-01-12 17:00:00,
2013-01-12 09:33:00,41.0,22.0,-100.00,ESE,104,4.0,10.0,46,-99.99,,,0.00,188.000000,,2013-01-12 17:33:00,
2013-01-12 09:43:00,41.0,22.0,-100.00,ESE,104,4.0,10.0,46,-99.99,,,0.00,188.000000,,2013-01-12 17:43:00,
2013-01-12 09:53:00,41.0,22.0,-100.00,ESE,104,4.0,10.0,46,-99.99,,,0.00,188.000000,,2013-01-12 17:53:00,
2013-01-12 10:00:00,44.0,21.0,-100.00,SE,143,5.0,8.0,40,0.00,,,-99.99,305.000000,,2013-01-12 18:00:00,
2013-01-12 10:33:00,44.0,21.0,-100.00,SE,143,5.0,8.0,40,0.00,,,-99.99,305.000000,,2013-01-12 18:33:00,
2013-01-12 10:43:00,44.0,21.0,-100.00,SE,143,5.0,8.0,40,0.00,,,-99.99,305.000000,,2013-01-12 18:43:00,
2013-01-12 10:52:00,44.0,21.0,-100.00,SE,143,5.0,8.0,40,0.00,,,-99.99,305.000000,,2013-01-12 18:52:00,
2013-01-12 11:00:00,43.0,29.0,-100.00,SSW,201,7.0,10.0,57,0.00,,,0.00,301.000000,,2013-01-12 19:00:00,
2013-01-12 11:23:00,43.0,29.0,-100.00,SSW,201,7.0,10.0,57,0.00,,,0.00,301.000000,,2013-01-12 19:23:00,
2013-01-12 11:33:00,43.0,29.0,-100.00,SSW,201,7.0,10.0,57,0.00,,,0.00,301.000000,,2013-01-12 19:33:00,
2013-01-12 11:43:00,43.0,29.0,-100.00,SSW,201,7.0,10.0,57,0.00,,,0.00,301.000000,,2013-01-12 19:43:00,
2013-01-12 11:52:00,43.0,29.0,-100.00,SSW,201,7.0,10.0,57,0.00,,,0.00,301.000000,,2013-01-12 19:52:00,
2013-01-12 12:00:00,44.0,32.0,-100.00,SW,219,7.0,13.0,62,0.00,,,0.00,321.000000,,2013-01-12 20:00:00,
2013-01-12 12:33:00,44.0,32.0,-100.00,SW,219,7.0,13.0,62,0.00,,,0.00,321.000000,,2013-01-12 20:33:00,
2013-01-12 12:43:00,44.0,32.0,-100.00,SW,219,7.0,13.0,62,0.00,,,0.00,321.000000,,2013-01-12 20:43:00,
2013-01-12 12:53:00,44.0,32.0,-100.00,SW,219,7.0,13.0,62,0.00,,,0.00,321.000000,,2013-01-12 20:53:00,
2013-01-12 13:00:00,45.0,31.0,-100.00,South,190,7.0,13.0,58,0.00,,,0.00,529.000000,,2013-01-12 21:00:00,
2013-01-12 13:33:00,45.0,31.0,-100.00,South,190,7.0,13.0,58,0.00,,,0.00,529.000000,,2013-01-12 21:33:00,
2013-01-12 13:43:00,45.0,31.0,-100.00,South,190,7.0,13.0,58,0.00,,,0.00,529.000000,,2013-01-12 21:43:00,
2013-01-12 13:53:00,45.0,31.0,-100.00,South,190,7.0,13.0,58,0.00,,,0.00,529.000000,,2013-01-12 21:53:00,
2013-01-12 14:00:00,46.0,29.0,-100.00,SW,233,6.0,12.0,51,0.00,,,0.00,419.000000,,2013-01-12 22:00:00,
2013-01-12 14:33:00,46.0,29.0,-100.00,SW,233,6.0,12.0,51,0.00,,,0.00,419.000000,,2013-01-12 22:33:00,
2013-01-12 14:43:00,46.0,29.0,-100.00,SW,233,6.0,12.0,51,0.00,,,0.00,419.000000,,2013-01-12 22:43:00,
2013-01-12 14:53:00,46.0,29.0,-100.00,SW,233,6.0,12.0,51,0.00,,,0.00,419.000000,,2013-01-12 22:53:00,
2013-01-12 15:00:00,46.0,29.0,-100.00,SW,214,7.0,12.0,52,0.00,,,0.00,376.000000,,2013-01-12 23:00:00,
2013-01-12 15:33:00,46.0,29.0,-100.00,SW,214,7.0,12.0,52,0.00,,,0.00,376.000000,,2013-01-12 23:33:00,
2013-01-12 15:43:00,46.0,29.0,-100.00,SW,214,7.0,12.0,52,0.00,,,0.00,376.000000,,2013-01-12 23:43:00,
2013-01-12 15:53:00,46.0,29.0,-100.00,SW,214,7.0,12.0,52,0.00,,,0.00,376.000000,,2013-01-12 23:53:00,
2013-01-12 16:00:00,44.0,28.0,-100.00,SW,215,5.0,9.0,52,0.00,,,0.00,189.000000,,2013-01-13 00:00:00,
2013-01-12 16:33:00,44.0,28.0,-100.00,SW,215,5.0,9.0,52,0.00,,,0.00,189.000000,,2013-01-13 00:33:00,
2013-01-12 16:43:00,44.0,28.0,-100.00,SW,215,5.0,9.0,52,0.00,,,0.00,189.000000,,2013-01-13 00:43:00,
2013-01-12 16:53:00,44.0,28.0,-100.00,SW,215,5.0,9.0,52,0.00,,,0.00,189.000000,,2013-01-13 00:53:00,
2013-01-12 17:00:00,43.0,28.0,-100.00,SW,217,3.0,6.0,55,0.00,,,0.00,61.000000,,2013-01-13 01:00:00,
2013-01-12 17:33:00,43.0,28.0,-100.00,SW,217,3.0,6.0,55,0.00,,,0.00,61.000000,,2013-01-13 01:33:00,
2013-01-12 17:43:00,43.0,28.0,-100.00,SW,217,3.0,6.0,55,0.00,,,0.00,61.000000,,2013-01-13 01:43:00,
2013-01-12 17:53:00,43.0,28.0,-100.00,SW,217,3.0,6.0,55,0.00,,,0.00,61.000000,,2013-01-13 01:53:00,
2013-01-12 18:00:00,39.0,27.0,-100.00,ENE,59,3.0,4.0,62,0.00,,,0.00,1.000000,,2013-01-13 02:00:00,
2013-01-12 18:23:00,39.0,27.0,-100.00,ENE,59,3.0,4.0,62,0.00,,,0.00,1.000000,,2013-01-13 02:23:00,
2013-01-12 18:33:00,39.0,27.0,-100.00,ENE,59,3.0,4.0,62,0.00,,,0.00,1.000000,,2013-01-13 02:33:00,
2013-01-12 18:43:00,39.0,27.0,-100.00,ENE,59,3.0,4.0,62,0.00,,,0.00,1.000000,,2013-01-13 02:43:00,
2013-01-12 18:53:00,39.0,27.0,-100.00,ENE,59,3.0,4.0,62,0.00,,,0.00,1.000000,,2013-01-13 02:53:00,
2013-01-12 19:00:00,38.0,28.0,-100.00,ENE,59,5.0,6.0,68,0.00,,,0.00,0.000000,,2013-01-13 03:00:00,
2013-01-12 19:22:00,38.0,28.0,-100.00,ENE,59,5.0,6.0,68,0.00,,,0.00,0.000000,,2013-01-13 03:22:00,
2013-01-12 19:33:00,38.0,28.0,-100.00,ENE,59,5.0,6.0,68,0.00,,,0.00,0.000000,,2013-01-13 03:33:00,
2013-01-12 19:43:00,38.0,28.0,-100.00,ENE,59,5.0,6.0,68,0.00,,,0.00,0.000000,,2013-01-13 03:43:00,
2013-01-12 19:53:00,38.0,28.0,-100.00,ENE,59,5.0,6.0,68,0.00,,,0.00,0.000000,,2013-01-13 03:53:00,
2013-01-12 20:00:00,39.0,29.0,-100.00,NE,53,3.0,6.0,67,0.00,,,0.00,0.000000,,2013-01-13 04:00:00,
2013-01-12 20:33:00,39.0,29.0,-100.00,NE,53,3.0,6.0,67,0.00,,,0.00,0.000000,,2013-01-13 04:33:00,
2013-01-12 20:43:00,39.0,29.0,-100.00,NE,53,3.0,6.0,67,0.00,,,0.00,0.000000,,2013-01-13 04:43:00,
2013-01-12 20:52:00,39.0,29.0,-100.00,NE,53,3.0,6.0,67,0.00,,,0.00,0.000000,,2013-01-13 04:52:00,
2013-01-12 21:00:00,39.0,29.0,-100.00,ENE,64,5.0,6.0,68,0.00,,,0.00,0.000000,,2013-01-13 05:00:00,
2013-01-12 21:32:00,39.0,29.0,-100.00,ENE,64,5.0,6.0,68,0.00,,,0.00,0.000000,,2013-01-13 05:32:00,
2013-01-12 21:42:00,39.0,29.0,-100.00,ENE,64,5.0,6.0,68,0.00,,,0.00,0.000000,,2013-01-13 05:42:00,
2013-01-12 21:53:00,39.0,29.0,-100.00,ENE,64,5.0,6.0,68,0.00,,,0.00,0.000000,,2013-01-13 05:53:00,
2013-01-12 22:00:00,38.0,29.0,-100.00,ENE,62,4.0,6.0,70,0.00,,,0.00,0.000000,,2013-01-13 06:00:00,
2013-01-12 22:32:00,38.0,29.0,-100.00,ENE,62,4.0,6.0,70,0.00,,,0.00,0.000000,,2013-01-13 06:32:00,
2013-01-12 22:42:00,38.0,29.0,-100.00,ENE,62,4.0,6.0,70,0.00,,,0.00,0.000000,,2013-01-13 06:42:00,
2013-01-12 22:52:00,38.0,29.0,-100.00,ENE,62,4.0,6.0,70,0.00,,,0.00,0.000000,,2013-01-13 06:52:00,
2013-01-12 23:00:00,38.0,28.0,-100.00,ENE,64,4.0,5.0,68,0.00,,,0.00,0.000000,,2013-01-13 07:00:00,
2013-01-12 23:32:00,38.0,28.0,-100.00,ENE,64,4.0,5.0,68,0.00,,,0.00,0.000000,,2013-01-13 07:32:00,
2013-01-12 23:42:00,38.0,28.0,-100.00,ENE,64,4.0,5.0,68,0.00,,,0.00,0.000000,,2013-01-13 07:42:00,
2013-01-12 23:52:00,38.0,28.0,-100.00,ENE,64,4.0,5.0,68,0.00,,,0.00,0.000000,,2013-01-13 07:52:00,